GFSSE_sfc_thetae_159.txt.gz
Theta_e
336 342 349 350 349 348 346 345 344 342 341 342 343 342 341 339 339 339 342 341 340 337 337 340 337 338 336 336 335 335 334 335 334 335 335 336 335 337 338 337 336 334 337
339 345 347 349 349 348 347 344 342 342 340 340 340 344 341 339 339 338 339 339 337 336 337 337 336 337 337 336 336 335 334 334 333 330 331 334 333 334 336 335 335 333 337
341 345 346 348 350 348 346 344 343 340 341 338 339 340 341 339 338 337 337 337 336 336 337 335 335 336 335 336 335 333 335 333 332 333 332 327 328 334 334 336 336 336 337
342 344 345 345 347 347 345 344 342 341 341 340 342 342 342 340 338 337 336 335 335 336 336 336 336 335 335 336 336 336 334 333 332 330 325 327 327 335 335 335 335 336 338
341 344 343 345 346 345 344 343 342 341 341 339 342 340 340 340 337 336 336 334 335 335 335 335 335 334 334 335 334 333 334 332 331 326 323 327 328 335 336 335 336 336 336
340 342 342 345 346 345 343 342 341 340 341 340 339 339 340 340 337 336 335 333 334 334 333 334 334 333 333 333 334 333 333 331 327 321 324 329 330 335 335 335 336 335 335
338 340 342 344 345 344 343 342 342 341 339 339 339 342 340 340 337 336 334 333 332 332 332 333 332 333 332 332 332 332 331 329 322 323 324 325 327 334 336 334 335 334 334
337 340 341 337 340 342 343 342 342 340 340 340 340 340 339 339 338 336 334 332 331 331 332 332 331 331 330 330 330 329 329 327 324 322 322 323 333 333 333 334 333 334 333
337 338 338 338 337 336 338 339 339 339 339 338 337 337 336 336 337 335 334 333 331 331 332 331 331 331 330 329 328 327 326 325 320 322 324 323 333 333 334 332 332 332 332
335 336 337 335 335 335 335 332 334 336 336 335 333 331 330 330 330 331 329 334 332 331 331 331 331 330 329 328 327 326 324 322 319 319 320 322 331 330 332 331 331 331 331
333 334 334 333 333 333 333 331 330 331 332 331 329 326 324 322 322 323 324 330 334 334 332 332 331 331 330 327 326 324 322 316 316 318 318 323 328 329 330 330 330 330 331
330 332 333 332 331 331 335 330 330 330 329 327 325 323 322 321 321 322 321 324 329 330 333 332 332 331 325 317 315 318 314 313 314 314 316 323 327 328 329 330 330 330 331
329 330 332 331 331 330 331 328 329 327 325 324 323 322 321 321 319 320 319 319 321 321 323 326 324 322 318 316 316 316 316 314 313 313 316 322 326 328 329 329 330 331 331
325 329 331 332 331 329 328 328 329 328 325 323 321 321 320 318 316 316 317 318 318 318 317 317 317 318 317 316 316 316 316 315 314 314 315 318 324 328 330 330 330 331 332
324 327 329 331 330 330 326 326 326 329 327 325 322 320 320 318 316 316 316 316 316 316 315 314 314 314 314 314 316 316 315 315 315 315 315 316 320 326 329 330 331 331 331
325 326 327 330 330 330 328 325 326 327 327 325 324 322 321 320 318 317 316 315 314 315 315 314 314 314 314 315 315 315 315 315 315 315 315 315 319 323 327 330 331 331 331
325 327 325 328 328 327 327 325 325 326 326 325 325 323 322 321 319 318 317 316 315 314 315 314 313 314 313 314 313 314 315 315 315 315 314 314 315 318 322 327 330 330 331
326 325 327 328 327 325 327 326 325 325 324 325 324 324 323 323 322 319 318 317 317 315 314 313 313 312 311 311 311 313 313 313 314 314 314 313 313 314 317 323 326 328 330
327 326 326 326 325 324 324 325 325 324 324 323 322 322 323 324 323 322 321 320 317 316 315 314 312 311 310 311 311 313 312 312 314 315 313 313 313 314 313 317 319 321 326
325 327 327 327 326 325 324 323 322 321 322 323 322 322 322 323 323 322 321 320 318 316 315 313 312 311 310 310 311 312 310 312 313 313 314 314 313 313 313 313 313 313 317
323 324 325 326 326 325 323 321 321 319 320 319 321 323 322 322 322 321 321 317 318 318 318 315 314 312 310 309 308 309 311 313 314 315 316 313 312 313 313 313 313 313 314
320 323 325 326 327 325 325 325 324 323 322 322 321 321 322 322 322 322 321 319 318 318 315 315 313 310 310 310 309 306 306 307 308 312 312 312 312 313 313 314 314 314 313
318 321 324 326 327 327 327 325 321 319 318 318 319 319 318 321 321 321 321 321 318 318 317 315 314 312 312 309 312 308 304 302 303 310 310 310 311 311 313 314 315 316 317
316 321 324 326 327 327 327 324 322 321 320 322 322 322 320 318 319 320 321 320 319 318 318 317 317 315 313 312 308 313 312 307 304 303 308 310 311 311 313 314 315 318 318
313 318 323 325 326 327 327 327 324 322 324 324 322 321 321 321 319 319 319 319 318 318 318 318 316 315 316 314 313 307 310 312 310 309 307 307 308 311 313 314 315 317 317
308 316 319 321 324 326 326 326 325 323 323 323 322 321 322 322 321 319 319 319 319 318 318 317 317 316 316 316 316 314 312 309 311 311 310 310 310 310 313 313 313 316 316

GFSSE_sfc_thetae_162.txt.gz
Theta_e
334 341 349 350 349 347 346 344 343 342 343 343 342 341 339 339 341 341 340 341 337 339 338 338 337 336 336 335 335 334 334 333 332 334 334 333 335 336 336 337 336 332 338
338 344 347 349 348 347 345 343 343 341 342 344 342 341 339 339 338 339 338 337 336 337 337 338 337 335 335 336 334 333 333 332 331 331 331 331 335 335 337 337 336 334 336
340 344 345 348 349 348 346 344 343 342 340 341 343 341 339 338 338 338 337 336 335 337 336 337 336 335 336 333 333 334 333 332 331 332 333 325 327 335 335 335 337 339 338
342 344 344 345 348 347 345 344 342 343 341 341 340 342 340 338 337 337 336 334 335 335 336 336 335 336 336 335 336 334 332 331 331 329 324 327 333 336 335 336 337 338 337
341 343 343 344 347 346 344 343 342 341 341 342 342 342 340 338 337 336 335 334 335 334 335 335 335 335 335 335 335 334 333 331 330 325 324 329 329 333 336 337 335 334 334
339 341 341 345 346 345 344 343 341 340 339 340 341 339 341 338 336 335 334 334 335 334 333 334 334 334 334 334 333 333 332 331 326 322 324 327 327 334 335 336 335 334 334
338 339 340 343 345 344 343 342 341 340 340 339 342 341 341 338 336 335 334 333 334 333 333 334 334 333 332 332 332 332 332 329 322 321 321 323 326 334 335 335 335 334 333
338 338 340 336 339 341 342 342 341 341 339 339 339 341 340 338 336 335 334 332 332 332 333 332 332 332 331 331 330 329 328 328 323 320 320 321 333 334 334 334 334 334 333
337 339 337 337 336 335 338 338 339 339 339 338 338 339 338 338 337 336 334 333 331 332 331 332 331 330 329 328 328 327 326 326 318 320 322 321 333 331 333 333 333 333 332
335 337 338 335 334 334 334 332 333 335 335 335 333 331 330 331 331 331 331 333 332 331 331 330 331 330 329 327 326 325 323 322 317 318 318 318 329 330 331 331 331 331 331
334 335 335 336 332 332 332 330 329 331 331 331 328 326 323 321 321 323 324 331 334 333 332 331 331 330 330 326 324 323 320 314 314 317 316 321 327 328 329 330 330 330 330
331 332 333 334 331 331 335 330 328 329 328 326 324 322 321 320 320 321 320 324 330 330 332 332 331 330 325 316 314 318 313 313 313 313 315 322 326 328 328 329 330 330 330
331 331 332 332 330 329 331 328 327 326 324 324 322 320 320 319 318 318 317 318 318 320 321 324 322 320 318 315 314 314 315 314 313 313 315 321 325 328 329 329 329 330 331
326 329 330 331 330 329 329 327 328 328 323 321 321 320 318 317 316 316 316 317 316 318 317 317 317 317 316 315 314 314 314 314 314 314 314 318 322 327 329 330 330 330 331
325 327 329 330 330 330 327 326 326 330 328 322 320 319 319 316 315 315 315 315 316 316 315 314 314 314 313 313 313 314 314 314 314 314 314 315 320 325 329 330 331 331 331
325 327 329 329 330 329 328 326 327 329 328 323 321 320 319 318 316 315 314 314 314 315 315 314 313 312 312 312 313 314 314 314 314 314 314 315 319 322 326 329 331 331 331
324 326 326 328 330 328 328 326 326 326 328 327 324 321 320 319 317 316 315 314 315 313 314 312 312 312 311 313 312 313 313 314 314 314 314 314 315 318 321 326 328 330 331
324 323 326 328 329 328 328 327 326 325 326 326 325 324 321 320 319 317 316 316 315 313 312 311 311 311 310 310 310 312 312 312 313 313 313 313 313 314 317 322 325 327 329
324 325 325 326 327 327 328 328 326 325 324 325 325 324 323 322 321 320 319 318 315 314 312 312 311 310 310 310 310 311 312 311 312 314 312 313 313 314 313 316 319 321 325
320 324 325 325 326 326 326 326 324 323 323 324 323 323 323 323 322 321 321 318 316 315 313 311 312 310 310 309 310 311 309 311 311 312 313 314 313 313 313 312 312 312 317
317 320 324 324 325 324 323 321 321 320 320 321 322 323 322 322 322 322 322 318 317 317 317 314 312 311 310 307 306 307 308 311 311 313 313 312 311 312 313 313 312 312 313
310 317 322 324 325 325 325 324 324 322 322 322 321 322 322 322 322 321 321 320 318 318 316 315 314 311 310 309 308 304 303 305 307 309 310 311 312 311 312 313 312 312 312
305 312 319 323 325 325 326 324 320 319 317 318 320 319 320 321 321 321 321 321 318 318 318 316 315 313 313 307 310 309 301 300 302 307 308 308 310 309 311 312 313 313 313
303 308 317 321 323 325 325 323 322 321 320 321 321 320 319 319 320 321 321 321 320 318 318 318 316 315 314 313 306 311 311 306 303 301 307 308 309 310 311 312 312 313 314
303 305 316 319 322 324 325 325 322 321 322 322 320 319 318 317 318 319 320 320 319 320 319 318 316 315 315 314 312 306 308 311 310 307 306 306 307 309 310 312 312 313 315
302 308 313 317 319 322 323 324 322 321 321 320 319 318 318 319 318 318 318 319 319 319 318 318 317 317 315 315 315 314 311 308 308 309 307 308 309 309 311 312 312 313 315

GFSSE_sfc_thetae_165.txt.gz
Theta_e
338 345 349 350 348 346 345 344 343 345 344 343 342 340 340 343 342 342 342 340 340 338 338 338 338 336 336 335 335 334 333 333 335 334 335 336 336 336 338 337 337 333 337
341 346 347 350 349 347 346 344 344 345 344 342 341 340 340 341 341 340 340 340 338 338 339 339 336 337 334 334 334 333 332 332 331 333 335 337 338 337 337 339 339 336 338
342 346 348 348 349 348 346 344 343 344 344 343 341 340 339 338 339 337 336 339 338 336 339 337 336 336 333 335 334 333 332 331 333 333 333 332 334 335 338 338 338 339 338
344 345 347 345 349 348 345 344 343 343 343 343 341 340 339 338 338 336 336 337 336 336 338 334 335 334 335 336 334 332 332 332 332 331 332 334 333 336 338 338 336 336 335
345 346 346 345 348 347 345 344 343 342 342 341 343 341 338 338 337 336 336 337 336 336 337 334 335 336 335 335 335 333 332 331 329 332 333 334 333 335 337 336 335 334 334
343 345 343 345 347 346 344 343 342 342 340 343 341 340 339 337 337 335 337 338 338 335 334 333 334 335 335 334 334 333 332 331 329 332 331 332 335 334 337 336 335 333 334
341 343 344 343 345 345 344 343 342 341 340 340 338 342 339 337 336 335 335 336 336 334 334 333 334 334 333 333 333 333 331 330 329 329 329 331 333 333 334 335 335 333 332
339 342 343 337 339 341 342 342 341 341 340 339 338 343 339 337 336 335 334 335 334 334 334 334 334 332 332 331 330 331 329 328 327 327 327 330 334 334 333 333 334 333 332
339 341 342 341 339 335 337 338 339 340 338 338 337 340 339 337 337 336 335 335 332 333 333 332 332 331 330 329 328 327 326 326 327 327 325 327 331 331 332 332 333 333 332
336 338 340 340 340 340 340 332 333 335 335 335 333 333 332 333 333 333 330 333 333 333 332 332 332 330 329 327 326 325 323 322 327 326 326 325 328 329 330 330 330 331 331
333 336 338 338 338 338 338 334 330 330 331 331 329 326 324 328 329 330 327 331 333 333 333 331 331 330 329 325 323 323 320 323 323 324 325 322 326 328 328 329 330 329 330
330 333 335 336 337 336 336 336 335 334 334 333 330 329 327 327 326 326 323 325 329 330 332 332 332 330 327 326 323 319 321 321 321 322 322 321 326 328 329 328 329 329 330
332 332 334 334 335 336 336 334 333 333 333 332 329 327 326 325 326 326 326 326 327 324 330 331 331 330 327 325 323 322 322 323 323 322 321 320 325 328 329 330 329 330 331
331 332 333 334 332 334 335 334 333 331 330 329 329 327 325 324 324 324 324 325 324 327 327 327 327 327 326 324 322 321 321 322 323 323 321 318 322 327 329 330 331 331 331
328 331 332 333 332 333 332 333 332 332 330 330 327 327 325 324 323 323 323 323 324 324 324 325 324 324 323 322 321 320 320 321 322 322 322 316 319 325 328 330 331 332 332
327 329 332 332 333 333 332 331 331 332 331 330 328 326 325 324 323 322 322 322 323 323 324 323 323 321 320 319 319 319 320 321 322 322 322 322 319 322 326 329 331 332 332
326 328 329 331 333 332 332 331 331 331 331 329 328 327 325 323 323 323 322 321 321 322 322 321 321 320 319 319 318 320 320 321 321 321 321 322 321 318 321 326 328 330 331
326 326 328 330 331 332 332 331 330 330 331 329 328 328 326 324 323 322 322 321 322 321 320 319 319 318 317 317 317 318 318 319 319 320 320 321 320 320 319 322 325 328 329
324 326 326 328 329 331 332 332 330 329 329 330 329 327 327 325 324 323 322 323 322 321 320 319 318 317 317 318 317 318 318 318 318 318 319 319 320 320 320 319 319 321 326
317 323 326 327 328 329 331 330 330 328 327 328 328 328 328 327 325 324 324 323 321 321 321 319 319 318 318 318 316 316 317 317 317 317 318 318 319 319 319 319 321 318 317
310 316 321 324 326 327 327 326 326 325 326 326 326 327 327 327 326 325 325 323 322 322 322 320 320 318 317 316 315 316 316 318 317 318 319 318 317 317 318 318 319 320 320
308 312 318 323 325 326 327 327 327 327 327 327 327 326 326 326 326 326 325 324 323 322 321 320 319 318 317 315 317 312 311 312 313 314 315 315 316 317 317 318 318 319 320
305 307 310 318 324 326 327 326 325 323 321 322 324 323 324 325 325 324 325 325 323 323 322 320 319 318 318 315 317 317 309 306 309 314 314 315 315 316 317 318 317 318 319
305 306 307 313 321 325 327 325 324 323 322 323 323 324 323 323 324 324 324 324 324 322 322 322 321 320 318 317 312 315 319 312 309 308 312 315 316 316 318 318 318 319 319
304 307 307 314 320 324 325 326 324 323 325 325 324 322 321 321 323 323 323 323 323 323 322 322 321 319 320 319 317 313 313 315 314 311 308 311 313 316 318 318 320 319 320
301 308 315 317 319 323 324 325 324 323 323 323 323 322 321 321 320 321 321 322 322 322 322 322 321 320 319 319 319 318 315 312 311 311 309 310 310 314 317 318 319 319 321

GFSSE_sfc_thetae_168.txt.gz
Theta_e
342 347 349 350 347 346 344 344 344 345 344 343 342 344 344 343 342 343 343 343 340 338 339 338 336 336 335 335 334 334 333 332 332 335 337 338 338 338 340 338 339 336 338
344 347 347 349 348 346 344 344 344 344 343 341 341 341 343 342 339 339 341 342 340 339 337 338 337 335 334 334 333 333 332 331 333 334 334 337 336 338 341 340 340 338 339
344 346 349 347 349 348 345 343 343 344 343 342 340 339 340 340 339 337 337 341 340 337 337 338 335 334 334 333 333 332 332 332 333 334 334 332 335 338 338 337 336 336 336
344 346 347 346 348 347 345 342 343 343 344 341 340 339 338 337 337 336 337 340 339 338 336 336 335 336 335 333 333 333 333 332 333 335 333 331 334 338 337 336 335 334 334
344 346 347 345 348 346 344 344 343 343 342 342 340 339 337 337 336 336 337 339 338 337 335 335 335 335 336 334 333 332 332 331 331 334 331 334 334 337 337 335 333 333 333
344 346 344 346 348 346 345 343 341 339 338 344 341 339 338 336 336 337 337 338 338 335 335 334 335 334 334 334 333 333 332 331 332 328 330 332 332 335 337 335 334 332 332
344 346 346 344 346 345 344 342 342 341 338 340 342 340 339 337 335 335 335 336 335 335 334 332 334 334 333 333 333 333 331 329 327 326 329 333 332 333 334 335 334 331 330
343 345 345 338 340 342 343 343 342 341 339 338 336 341 339 337 335 335 335 335 334 334 333 333 334 333 332 331 332 331 329 329 327 326 326 330 333 332 332 334 334 332 331
343 344 345 344 340 335 338 339 339 340 339 339 338 341 339 337 337 336 336 336 334 332 332 333 333 331 331 330 328 327 327 326 329 328 325 327 330 331 331 331 331 332 330
340 342 344 343 343 342 340 333 334 336 336 336 334 335 333 333 333 333 331 334 333 332 333 332 331 330 329 327 325 324 323 325 329 329 328 327 326 329 330 330 329 330 330
336 338 340 343 343 342 341 335 331 331 332 331 331 327 328 334 334 332 328 331 332 332 332 331 331 330 329 326 323 322 320 328 327 327 328 323 325 329 328 329 330 329 330
333 335 337 339 341 341 339 340 339 337 336 334 334 334 333 333 332 331 326 327 330 330 332 332 332 331 327 327 325 320 324 324 325 326 326 321 324 328 330 329 330 330 330
336 334 335 336 337 341 340 340 339 338 337 335 335 335 334 332 331 330 331 329 331 325 331 331 331 330 329 327 325 324 324 325 325 326 325 321 324 328 330 331 331 331 331
336 337 336 336 336 337 340 339 338 337 337 335 334 333 332 331 331 330 329 329 330 330 330 330 329 329 328 327 326 324 323 324 325 326 325 320 322 327 330 331 331 332 332
334 337 338 336 335 335 336 339 338 337 336 336 335 334 332 330 329 329 328 328 328 328 328 328 329 328 328 327 326 325 323 323 324 325 326 319 320 324 328 330 332 332 333
333 335 338 338 336 335 336 337 337 338 337 337 336 334 333 331 330 329 327 327 327 327 327 327 326 326 325 325 323 323 323 323 324 325 325 326 321 323 326 329 331 332 333
332 334 335 337 339 339 339 339 337 336 335 333 335 336 334 332 330 329 328 327 326 327 327 327 327 327 325 323 322 322 323 323 324 324 325 325 325 320 322 326 328 330 332
330 331 333 334 336 338 339 339 338 338 336 334 332 333 335 333 331 330 328 328 328 327 327 326 326 325 325 323 321 321 321 322 323 323 324 324 324 323 322 322 326 328 330
323 325 327 331 333 336 337 338 338 338 337 337 334 331 334 334 332 331 329 329 329 328 327 327 326 325 324 323 323 323 323 323 323 322 322 323 323 323 324 323 321 322 327
318 321 324 328 331 333 335 336 337 337 336 337 335 332 333 334 333 332 331 330 329 327 327 327 326 326 324 324 322 322 323 324 324 323 323 322 323 323 323 323 324 320 318
316 317 320 321 326 330 331 332 330 328 331 334 335 335 334 334 333 332 332 331 330 328 327 327 326 324 324 325 322 322 322 323 322 323 323 322 322 322 322 322 324 324 323
315 316 317 320 323 328 329 331 332 332 332 333 334 334 334 334 333 332 332 331 330 328 328 327 326 324 323 326 320 321 315 318 319 319 320 320 320 321 321 321 321 321 323
314 315 315 318 322 325 328 329 331 331 331 330 332 332 332 333 333 332 332 331 331 329 328 328 327 325 322 325 323 321 315 313 313 318 319 320 320 321 323 323 322 322 323
312 315 315 315 316 320 325 327 327 326 325 328 330 331 331 331 331 331 331 331 330 329 327 328 328 326 324 322 320 321 324 322 315 315 320 319 319 319 321 323 323 323 323
310 315 318 316 316 319 324 327 327 327 328 330 330 329 329 330 330 330 329 329 329 328 328 327 327 325 324 322 322 321 318 320 320 315 311 318 320 320 321 320 322 324 324
311 318 323 322 323 324 326 327 328 327 328 328 328 328 329 329 329 329 328 328 328 327 326 327 325 323 322 321 320 320 318 314 312 313 311 313 316 320 321 322 321 323 325

GFSSE_sfc_thetae_171.txt.gz
Theta_e
342 346 349 348 346 345 345 346 346 345 344 343 345 344 342 341 342 345 344 344 342 339 338 337 336 336 335 335 334 333 333 334 336 337 337 338 341 341 341 340 341 338 341
345 346 347 349 346 345 344 344 344 344 343 341 341 344 342 340 340 340 341 342 339 338 338 336 335 334 334 333 333 332 333 334 334 334 333 340 340 339 339 337 339 336 338
344 346 348 348 348 345 344 343 343 343 341 340 340 341 342 340 338 338 338 341 339 337 335 335 335 334 334 333 332 332 332 333 334 335 337 335 337 337 337 336 335 336 336
345 345 347 345 347 345 343 343 343 344 343 340 338 337 338 338 337 337 337 339 337 336 336 334 334 335 334 333 333 333 333 333 334 336 330 333 333 336 336 335 335 335 334
344 344 346 345 348 344 342 342 341 343 343 340 339 337 335 335 335 336 336 336 336 335 334 334 336 336 333 333 333 333 332 331 333 333 332 333 335 337 336 334 333 332 333
343 344 343 346 347 343 343 342 340 340 338 342 340 338 337 335 335 334 334 337 337 334 334 334 335 334 334 333 332 332 331 331 333 327 329 330 331 336 336 334 332 331 333
342 344 346 345 346 345 343 341 340 338 338 343 340 340 338 335 334 332 333 333 334 333 332 333 333 333 333 332 333 331 330 329 326 326 329 332 332 333 336 334 332 330 331
341 344 344 339 341 343 343 342 342 339 337 337 340 340 338 337 334 334 333 333 333 331 331 330 332 332 332 332 333 330 328 329 326 324 326 331 333 332 333 334 332 331 330
344 342 343 344 340 336 339 339 340 340 339 336 339 341 339 337 337 335 336 334 332 332 331 331 332 331 330 329 328 327 327 328 327 325 323 326 331 331 330 331 332 331 329
341 343 341 342 341 341 340 334 334 337 337 336 334 337 334 333 333 334 332 333 333 333 332 333 332 330 329 328 325 324 323 325 327 326 325 325 325 329 329 329 329 330 330
338 340 342 341 341 340 339 335 330 332 332 332 331 329 329 333 333 331 329 332 332 334 333 333 332 330 330 327 325 324 322 325 325 325 324 325 324 327 329 328 330 329 330
333 336 338 340 340 340 338 339 338 337 334 333 333 334 333 332 332 331 327 327 331 330 332 333 332 332 327 325 325 323 322 324 323 324 324 325 324 327 329 330 330 331 331
337 336 336 338 339 340 338 338 338 339 337 336 334 335 334 332 332 331 331 329 330 323 328 330 330 329 327 326 325 324 323 323 323 325 325 325 325 327 329 331 331 331 331
335 337 338 337 338 338 340 338 337 337 337 336 336 335 335 333 332 330 329 330 331 330 329 330 329 330 328 328 327 325 324 323 323 325 325 322 325 327 329 331 332 332 332
334 337 338 339 336 336 337 338 337 337 337 337 336 335 333 332 332 330 329 328 329 328 328 328 328 327 327 326 325 325 324 324 324 324 326 318 323 326 328 330 331 333 333
334 335 338 339 338 336 335 337 338 338 338 337 337 336 334 333 332 330 329 328 327 328 327 327 326 326 326 326 325 324 324 324 323 324 324 325 322 325 327 329 331 332 333
332 334 335 338 340 338 336 337 340 339 339 337 337 336 336 334 332 330 330 329 327 327 327 326 326 326 325 325 324 323 323 323 323 323 324 325 325 320 324 327 329 331 332
327 329 333 334 337 339 339 341 340 339 337 337 335 336 337 335 333 331 330 329 329 327 326 326 325 325 325 325 324 322 322 322 322 322 323 323 324 324 322 325 327 329 330
323 326 328 330 332 335 338 340 340 340 338 338 336 333 334 336 335 332 331 331 330 329 327 326 326 326 324 324 323 323 323 323 323 322 322 322 323 323 324 323 322 323 327
321 320 319 324 328 332 335 337 338 339 339 339 337 335 333 335 336 334 332 331 331 330 328 328 326 327 326 324 322 322 324 324 324 324 324 324 324 323 323 323 323 320 319
319 318 316 318 324 327 330 332 333 334 336 337 338 337 334 334 335 335 333 332 330 328 329 328 327 326 325 326 322 322 323 325 324 325 325 324 323 323 323 323 323 323 322
315 316 315 316 319 323 328 331 332 332 333 334 335 337 336 334 334 335 334 333 330 328 328 328 326 324 325 326 320 321 316 321 323 323 323 322 322 323 322 322 322 322 322
313 315 317 317 318 322 326 329 330 331 331 331 332 334 335 333 333 333 333 332 331 329 327 328 327 324 321 325 324 320 315 314 320 322 319 320 320 321 322 323 322 321 321
315 317 317 318 318 320 324 326 327 326 325 327 329 334 334 332 331 332 332 332 330 330 327 327 328 326 323 320 321 322 322 320 314 313 323 323 324 320 320 322 322 323 323
313 316 319 319 319 318 319 321 326 327 328 328 329 331 332 331 333 332 333 332 330 329 328 327 326 325 325 322 321 318 317 318 319 314 311 316 323 322 322 321 322 322 323
313 318 324 323 323 324 322 323 324 325 327 327 328 328 327 329 330 331 331 330 329 328 328 328 328 326 325 323 322 321 318 313 313 313 312 313 314 318 321 323 322 323 323